Weather History for EGOS - October, 2013

Change the Weather History Date:

Saturday, October 26, 2013

  Actual Average (EGGP) Record (EGGP)
Temperature  
Mean Temperature 54 °F -  
Max Temperature 59 °F 48 °F 62 °F (2005)
Min Temperature 50 °F 38 °F 32 °F (1997)
Degree Days  
Heating Degree Days 10    
Growing Degree Days 4 (Base 50)    
Moisture  
Dew Point 51 °F    
Average Humidity 84    
Maximum Humidity 100    
Minimum Humidity 61    
Precipitation  
Precipitation 0.02 in - - ()
Sea Level Pressure  
Sea Level Pressure 29.49 in    
Wind  
Wind Speed 10 mph ()    
Max Wind Speed 22 mph    
Max Gust Speed -    
Visibility 8.4 miles    
Events Rain    
Averages and records for this station are not official NWS values.
T = Trace of Precipitation, MM = Missing Value Source: Averaged Metar Reports

Daily Weather History Graph

Daily Weather History Graph

Search for Another Location

Airport or City:

Trip Planner

Search our weather history database for the weather conditions in past years. The results will help you decide how hot, cold, wet, or windy it might be!

Date:

Astronomy

Oct. 26, 2013 Rise Set
Actual Time 7:56 AM BST 5:51 PM BST
Civil Twilight 7:21 AM BST 6:27 PM BST
Nautical Twilight 6:40 AM BST 7:07 PM BST
Astronomical Twilight 6:01 AM BST 7:47 PM BST
Moon 11:48 PM BST (10/26) 2:12 PM BST (10/26)
Length of Visible Light 11h 06m
Length of Day
9h 54m
Waning Gibbous, 55% of the Moon is Illuminated
Oct 26
Waning Gibbous
Oct 27
Last Quarter
Nov 3
New
Nov 10
First Quarter
Nov 17
Full

Hourly Weather History & Observations

Time (BST) Temp. Dew Point Humidity Pressure Visibility Wind Dir Wind Speed Gust Speed Precip Events Conditions
12:50 AM 55.4 °F 51.8 °F 88% 29.56 in 6.2 mi South 8.1 mph - N/A   Partly Cloudy
1:00 AM 55 °F 51 °F 84% 29.57 in 14 mi South 8.1 mph - -   Scattered Clouds
1:50 AM 55.4 °F 51.8 °F 88% 29.56 in 6.2 mi South 8.1 mph - N/A   Scattered Clouds
2:50 AM 55.4 °F 53.6 °F 94% 29.56 in 6.2 mi South 10.4 mph - N/A   Mostly Cloudy
3:50 AM 55.4 °F 53.6 °F 94% 29.53 in 6.2 mi South 6.9 mph - N/A Rain Light Rain Showers
4:00 AM 55 °F 54 °F 93% 29.55 in 7 mi South 6.9 mph - - Rain Light Rain Showers
4:50 AM 55.4 °F 53.6 °F 94% 29.53 in 3.7 mi South 10.4 mph - N/A   Haze
5:50 AM 55.4 °F 53.6 °F 94% 29.53 in 6.2 mi South 5.8 mph - N/A   Mostly Cloudy
6:50 AM 55.4 °F 53.6 °F 94% 29.53 in 6.2 mi SSE 6.9 mph - N/A   Scattered Clouds
7:00 AM 55 °F 53 °F 92% 29.54 in 15 mi SSE 6.9 mph - -  
7:50 AM 55.4 °F 55.4 °F 100% 29.53 in 6.2 mi South 10.4 mph - N/A   Mostly Cloudy
8:50 AM 57.2 °F 55.4 °F 94% 29.53 in 6.2 mi South 9.2 mph - N/A   Mostly Cloudy
9:50 AM 57.2 °F 55.4 °F 94% 29.56 in 6.2 mi SSW 10.4 mph - N/A   Mostly Cloudy
10:00 AM 57 °F 55 °F 89% 29.57 in 19 mi SSW 10.4 mph - -   Scattered Clouds
10:50 AM 59.0 °F 51.8 °F 77% 29.56 in 6.2 mi SW 12.7 mph - N/A   Mostly Cloudy
11:50 AM 59.0 °F 51.8 °F 77% 29.56 in 6.2 mi SW 16.1 mph - N/A   Mostly Cloudy
12:50 PM 59.0 °F 50.0 °F 72% 29.53 in 6.2 mi SW 16.1 mph - N/A   Mostly Cloudy
1:00 PM 59 °F 49 °F 62% 29.54 in 19 mi SW 16.1 mph - -   Mostly Cloudy
1:50 PM 57.2 °F 48.2 °F 72% 29.53 in 6.2 mi SSW 21.9 mph - N/A   Mostly Cloudy
2:50 PM 57.2 °F 46.4 °F 67% 29.50 in 6.2 mi SW 17.3 mph - N/A   Mostly Cloudy
3:50 PM 57.2 °F 48.2 °F 72% 29.50 in 6.2 mi South 20.7 mph - N/A   Mostly Cloudy
4:00 PM 58 °F 48 °F 61% 29.50 in 19 mi South 20.7 mph - -   Scattered Clouds
4:50 PM 59.0 °F 48.2 °F 67% 29.44 in 6.2 mi South 16.1 mph - N/A   Mostly Cloudy
5:50 PM 57.2 °F 46.4 °F 67% 29.42 in 6.2 mi South 20.7 mph - N/A   Mostly Cloudy
6:50 PM 55.4 °F 50.0 °F 82% 29.39 in 6.2 mi South 18.4 mph - N/A Rain Rain Showers
7:00 PM 56 °F 51 °F 76% 29.40 in 16 mi South 18.4 mph - - Rain Rain Showers
7:50 PM 55.4 °F 51.8 °F 88% 29.39 in 1.8 mi SSW 17.3 mph - N/A Rain Rain Showers
8:50 PM 51.8 °F 50.0 °F 94% 29.36 in 6.2 mi SSW 13.8 mph - N/A Rain Light Rain
9:50 PM 51.8 °F 48.2 °F 88% 29.39 in 6.2 mi SSW 12.7 mph - N/A   Mostly Cloudy
10:00 PM 51 °F 48 °F 87% 29.39 in 19 mi SSW 12.7 mph - - Rain Rain
10:50 PM 50.0 °F 46.4 °F 87% 29.36 in 6.2 mi SW 12.7 mph - N/A   Partly Cloudy
11:50 PM 50.0 °F 46.4 °F 87% 29.36 in 6.2 mi South 4.6 mph - N/A   Unknown